Location: Kampong Pandan
(3.0333°N, 101.4667°E)
Time: 11:19:38
(UTC+00:00)

Daily predictions for brighter satellites

Satellite Brightness Start Highest point End
(mag) Time Altitude Azimuth Time Altitude Azimuth Time Altitude Azimuth
CARTOSAT-1 3.8 12:00:52 10° SSE 12:04:53 45° ENE 12:08:52 10° N
Cosmos 2322 4.4 12:02:27 10° SSE 12:07:21 30° ESE 12:12:14 10° NE
SAR-Lupe-1 4.4 12:04:20 10° SSE 12:07:42 42° ENE 12:11:03 10° N
Resurs 1-3 3.8 12:06:01 10° S 12:10:18 72° WSW 12:14:34 10° NNW
Cosmos 836 Rocket 4.4 12:05:18 10° N 12:10:27 80° ENE 12:15:39 10° SSE
Cosmos 1570 Rocket 4.0 12:06:04 10° N 12:11:22 85° E 12:16:42 10° SSE
Cosmos 2074 Rocket 4.0 12:05:30 10° S 12:11:32 55° E 12:17:33 10° NNE
Cosmos 1898 Rocket 3.8 12:06:18 10° SSW 12:11:34 72° WNW 12:16:48 10° N
Cosmos 2082 3.9 12:08:09 10° N 12:13:29 47° ENE 12:18:50 10° SSE
Cosmos 1666 Rocket 3.5 12:09:46 10° S 12:14:05 88° WNW 12:18:20 10° N
Palapa 6 Rocket 3.7 12:08:37 10° WNW 12:15:06 83° SSW 12:18:41 22° ESE
Cosmos 1633 Rocket 2.9 12:10:59 10° S 12:15:22 74° E 12:19:43 10° N
YAOGAN 1 2.8 12:12:35 10° S 12:16:49 70° W 12:21:02 10° NNW
BREEZE-M DEB (TANK) 2.3 12:16:03 10° SSW 12:19:34 37° SE 12:20:00 35° ESE
CENTAUR R/B 4.4 12:13:44 10° NNE 12:20:42 23° ENE 12:23:20 20° E
Cosmos 2219 Rocket 3.2 12:15:21 10° SSW 12:20:42 48° WNW 12:26:02 10° N
ATLAS 5 CENTAUR R/B 0.9 12:18:23 10° SW 12:21:18 29° SSE 12:21:19 29° SSE
SJ-7 4.2 12:18:01 11° SSE 12:21:33 56° ENE 12:25:10 10° N
ARIANE 5 DEB (SYLDA) 4.1 12:15:22 10° W 12:23:44 48° S 12:25:36 27° SE
Cosmos 1340 Rocket 4.0 12:21:56 10° SSW 12:25:26 40° W 12:28:53 10° NNW
Resurs 01 Rocket 1.6 12:21:37 10° SSE 12:25:57 61° E 12:30:15 10° N
SAR-Lupe-4 3.6 12:24:03 10° S 12:27:36 77° WSW 12:31:09 10° NNW
STPSAT 2 (USA 217) 4.4 12:23:45 10° N 12:28:11 70° ENE 12:31:16 19° SSE
Cosmos 2219 3.1 12:22:39 10° NNW 12:28:15 89° ENE 12:33:52 10° SSE
Centaur AC-112 3.6 12:11:31 10° WNW 12:28:47 78° NNE 12:30:59 33° ESE
Ariane H10+ 3.3 12:28:15 10° SW 12:29:45 13° SSW 12:29:53 13° S
PSLV R/B 3.3 12:27:26 21° SSE 12:29:53 58° ENE 12:33:50 10° N
Molniya-1 4.4 12:24:16 10° S 12:31:42 36° SE 12:32:10 35° ESE
NOAA 6 3.9 12:27:25 10° SSE 12:32:33 75° ENE 12:37:37 10° N
Cosmos 1937 Rocket 4.1 12:28:23 10° SSW 12:33:33 59° WNW 12:38:44 10° N
Lacrosse 4 Rocket 1.8 12:29:47 10° NNW 12:33:53 61° WSW 12:37:28 13° S
COSMOS 2428 2.7 12:31:13 10° S 12:36:46 54° ESE 12:42:19 10° NNE
Meteor 1-15 Rocket 4.5 12:31:43 10° SSW 12:37:18 69° W 12:42:49 10° N
Helios 1A Rocket 2.1 12:35:36 10° NNE 12:41:20 15° SSW 12:41:58 10° SSW
Delta 2 Rocket 3.7 12:40:08 10° NW 12:42:05 36° NNW 12:42:05 36° NNW
OceanSat 1 rocket 4.5 12:41:15 32° SSE 12:43:25 67° ENE 12:48:07 10° N
DNEPR-1 R/B 3.6 12:43:37 10° SSW 12:48:44 62° ESE 12:48:44 62° ESE
OAO 2 Rocket 3.3 12:49:25 10° WSW 12:54:32 76° NW 12:55:38 54° NNE
NOSS 3-4 (A) 2.9 12:53:35 10° SSW 12:59:09 73° ESE 12:59:14 72° ESE
NOSS 3-4 (C) 2.9 12:54:04 10° SSW 12:59:30 71° SE 12:59:30 71° SE
ARIANE 5 R/B 3.6 12:57:36 10° WSW 12:58:48 18° WSW 12:58:48 18° WSW
Meteor 1-12 Rocket 4.3 13:03:53 10° S 13:09:44 80° W 13:15:39 10° N
Cosmos 2181 Rocket 4.0 13:05:09 10° N 13:11:17 79° W 13:14:53 27° S
H-2A R/B 3.6 13:13:51 10° WNW 13:17:19 28° W 13:17:19 28° W
Chandra Rocket (1) 4.3 12:53:40 10° SW 13:28:25 69° SSE 13:30:20 61° ESE
H-10 deb 3.8 13:32:25 10° W 13:40:16 41° NW 13:40:16 41° NW
BLOCK DM-SL R/B 4.1 13:38:05 10° W 13:42:07 65° WSW 13:42:07 65° WSW
Cosmos 1844 Rocket 4.3 13:43:49 10° NNW 13:46:42 29° NW 13:46:42 29° NW
CENTAUR R/B 3.7 14:02:08 10° NNW 14:10:30 60° W 14:10:30 60° W
Milstar 3 4.4 14:28:23 10° WSW 14:32:49 40° W 14:32:49 40° W
Ariane H10+ 4.4 14:22:32 10° W 14:36:22 67° WSW 14:36:22 67° WSW
Maqsat-H 4.4 14:34:32 10° W 15:20:38 19° E 20:19:43 10° E
Cosmos 1980 Rocket 4.2 20:33:03 22° ESE 20:33:03 22° ESE 20:35:42 10° SE
Centaur AC-125 4.4 20:55:44 49° N 20:55:44 49° N 20:59:09 10° NE
SL-16 R/B 4.3 20:50:57 10° SE 20:56:10 29° ENE 21:01:23 10° NNE
BLOCK DM-SL R/B 4.2 20:57:19 69° SSW 20:57:43 70° S 21:25:03 10° E
BLOCK DM-SL R/B 4.2 20:57:19 69° SSW 20:57:43 70° S 21:25:04 10° E
BLOCK DM-SL R/B 4.2 20:57:20 69° SSW 20:57:44 70° S 21:25:03 10° E
BLOCK DM-SL R/B 4.2 20:57:20 69° SSW 20:57:44 70° S 21:25:04 10° E
ISS -0.2 21:02:41 10° E 21:02:41 10° E 21:02:42 10° E
ATLAS 5 CENTAUR R/B 3.7 21:13:51 28° S 21:13:51 28° S 21:17:01 10° SSE
BLOCK DM-SL R/B 3.4 21:17:27 53° SE 21:17:27 53° SE 21:27:13 10° E
Ariane 42L R/B 3.3 21:20:18 70° W 21:21:01 89° N 21:25:07 10° E
Meteor 1-14 Rocket 4.1 21:17:44 10° N 21:23:24 88° E 21:28:58 10° S
DELTA 2 R/B (1) 3.5 21:29:48 62° SSW 21:30:40 76° SE 21:36:10 10° NE
Cosmos 468 Rocket 4.4 21:37:12 43° NW 21:37:12 43° NW 21:41:12 10° N
SJ-11-01 4.1 21:34:51 10° N 21:39:28 77° WNW 21:40:28 54° SSW
ARIANE 5 R/B 3.3 21:41:24 27° SE 21:41:24 27° SE 21:42:36 10° ESE
USA 215 3.7 21:34:53 10° NE 21:41:19 60° SE 21:47:09 13° SSW
SL-14 R/B 4.3 21:44:05 10° SSE 21:47:43 45° E 21:51:23 10° NNE
Cosmos 1842 Rocket 3.6 21:53:10 48° WSW 21:53:35 50° W 21:57:45 10° N
Cosmos 2266 Rocket 4.4 21:48:29 10° NNW 21:53:53 35° W 21:59:16 10° SSW
BLOCK DM-SL R/B 4.3 21:54:13 25° WSW 21:57:47 37° SSW 22:01:48 10° ESE
ARIANE 3 DEB 2.7 21:59:55 33° ESE 21:59:55 33° ESE 22:01:28 10° E
Lacrosse 5 rocket 3.6 21:58:16 10° N 22:00:53 21° ENE 22:03:34 10° ESE
GPS 2-12 Rocket1 3.7 22:00:00 30° NW 22:01:12 36° NNW 22:05:09 10° NE
Cosmos 2369 3.6 21:56:25 10° NNW 22:02:04 68° WSW 22:07:44 10° S
Cosmos 2333 Rocket 4.3 21:59:04 10° NNE 22:03:53 29° ENE 22:08:43 10° SE
ARIANE 6 FM1 Upper Stage 4.3 22:02:24 10° N 22:06:03 34° ENE 22:09:46 10° SE
Ariane H10 4.0 21:55:21 23° W 22:06:10 86° S 22:10:31 10° E
Meteor 1-28 Rocket 2.9 22:07:16 10° SSE 22:10:32 79° E 22:13:48 10° N
ARIANE 5 R/B 2.6 22:12:23 22° SSW 22:12:49 24° SSE 22:15:24 10° ESE
UNK 4.2 22:08:39 10° SSE 22:13:11 63° ENE 22:17:43 10° N
Cosmos 1980 Rocket 3.4 22:15:07 20° WSW 22:15:07 20° WSW 22:18:38 10° SSW
Cosmos 1461 2.7 22:12:51 22° SW 22:15:00 52° WNW 22:18:38 10° N
Ariane H10 3.1 22:19:44 17° S 22:19:44 17° S 22:20:55 10° SSE
EXPRESS MD2 3.2 22:18:50 14° SSW 22:20:23 38° SE 22:22:41 10° NE
Centaur D AC-25 2.9 22:16:54 12° SW 22:24:27 66° SSE 22:28:01 10° ENE
Alouette 2 Rocket 3.1 22:23:20 10° NNW 22:26:51 74° W 22:30:50 10° S
Spelda 30 4.1 22:22:44 14° WSW 22:30:49 48° S 22:33:56 10° ESE
Cosmos 2315 Rocket 4.2 22:25:48 10° S 22:32:04 82° E 22:38:21 10° N
USA 234 3.8 22:28:17 10° SSE 22:34:13 37° SW 22:40:09 10° WNW
ISS -2.1 22:35:43 13° W 22:37:39 19° NW 22:40:09 10° N
Cosmos 2278 4.3 22:32:27 10° N 22:38:05 65° ENE 22:43:42 10° SSE
SL-16 R/B 3.4 22:34:30 10° SSW 22:39:26 25° WSW 22:44:21 10° NW
Meteor 2-10 Rocket 4.1 22:35:26 10° N 22:40:33 66° E 22:45:54 10° SSE
Cosmos 2360 Rocket 3.9 22:37:13 10° N 22:42:25 38° ENE 22:47:38 10° SE
IRS-1D 4.1 22:39:55 10° N 22:44:37 38° WNW 22:49:26 10° SW
Cosmos 1484 Rocket 4.3 22:41:55 10° NE 22:44:57 33° ESE 22:48:01 10° SSE
ATLAS 3B R/B 3.1 22:39:53 10° NW 22:46:24 40° WSW 22:52:29 10° S
Cosmos 1151 Rocket 3.7 22:43:12 10° SSW 22:46:57 31° W 22:50:43 10° NNW
Cosmos 1354 Rocket 4.3 22:42:00 10° N 22:47:12 73° ENE 22:52:24 10° SSE
Cosmos 2322 Rocket 3.2 22:44:54 10° N 22:50:23 53° ENE 22:55:53 10° SSE
Ariane H10-3 4.2 22:30:18 11° W 23:09:08 79° S 23:13:57 10° E
